Appleton, MN

8:58 PM CDT on March 30, 2017 (GMT -0500)
Appleton Municipal

Weather History for KAQP - June, 2013

Change the Weather History Date:

Saturday, June 1, 2013

  Actual Average Record
Temperature  
Mean Temperature 56 °F -  
Max Temperature 60 °F 70 °F 87 °F (1997)
Min Temperature 53 °F 49 °F 6 °F (1997)
Degree Days  
Heating Degree Days 8    
Growing Degree Days 6 (Base 50)    
Moisture  
Dew Point 50 °F    
Average Humidity 81    
Maximum Humidity 94    
Minimum Humidity 63    
Precipitation  
Precipitation 0.00 in - - ()
Sea Level Pressure  
Sea Level Pressure 29.77 in    
Wind  
Wind Speed 12 mph (NNW)    
Max Wind Speed 31 mph    
Max Gust Speed 38 mph    
Visibility 10 miles    
Events      
Averages and records for this station are not official NWS values.
T = Trace of Precipitation, MM = Missing Value Source: NWS Daily Summary

Daily Weather History Graph

Daily Weather History Graph

Search for Another Location

Airport or City:

Trip Planner

Search our weather history database for the weather conditions in past years. The results will help you decide how hot, cold, wet, or windy it might be!

Date:

Astronomy

Jun. 01, 2013 Rise Set
Actual Time 5:39 AM CDT 9:04 PM CDT
Civil Twilight 5:02 AM CDT 9:41 PM CDT
Nautical Twilight 4:15 AM CDT 10:29 PM CDT
Astronomical Twilight 3:13 AM CDT 11:31 PM CDT
Moon 1:54 AM CDT (6/1) 2:18 PM CDT (6/1)
Length of Visible Light 16h 38m
Length of Day
15h 25m
Last Quarter, 40% of the Moon is Illuminated
Jun 1
Last Quarter
Jun 8
New
Jun 16
First Quarter
Jun 23
Full
Jun 29
Last Quarter

Hourly Weather History & Observations

Time (CDT) Temp. Dew Point Humidity Pressure Visibility Wind Dir Wind Speed Gust Speed Precip Events Conditions
12:13 AM 60.8 °F 53.6 °F 77% 29.51 in 10.0 mi SSE 3.5 mph - N/A   Overcast
12:33 AM 60.8 °F 55.4 °F 82% 29.51 in 10.0 mi Calm Calm - N/A   Overcast
12:53 AM 59.0 °F 55.4 °F 88% 29.51 in 10.0 mi SSE 4.6 mph - N/A   Overcast
1:13 AM 59.0 °F 55.4 °F 88% 29.52 in 10.0 mi SE 4.6 mph - N/A   Overcast
1:33 AM 57.2 °F 53.6 °F 88% 29.53 in 10.0 mi SSE 4.6 mph - N/A   Overcast
1:53 AM 57.2 °F 53.6 °F 88% 29.53 in 10.0 mi SE 3.5 mph - N/A   Scattered Clouds
2:13 AM 55.4 °F 53.6 °F 94% 29.53 in 10.0 mi Calm Calm - N/A   Scattered Clouds
2:33 AM 55.4 °F 53.6 °F 94% 29.53 in 10.0 mi East 3.5 mph - N/A   Scattered Clouds
2:53 AM 55.4 °F 53.6 °F 94% 29.54 in 10.0 mi ENE 4.6 mph - N/A   Overcast
3:14 AM 57.2 °F 53.6 °F 88% 29.54 in 10.0 mi Calm Calm - N/A   Overcast
3:34 AM 55.4 °F 53.6 °F 94% 29.54 in 10.0 mi Calm Calm - N/A   Scattered Clouds
3:53 AM 55.4 °F 51.8 °F 88% 29.55 in 10.0 mi NNE 4.6 mph - N/A   Clear
4:13 AM 53.6 °F 51.8 °F 94% 29.55 in 10.0 mi NNE 3.5 mph - N/A   Mostly Cloudy
4:33 AM 53.6 °F 51.8 °F 94% 29.57 in 10.0 mi North 6.9 mph - N/A   Mostly Cloudy
4:53 AM 55.4 °F 53.6 °F 94% 29.57 in 10.0 mi North 5.8 mph - N/A   Mostly Cloudy
5:14 AM 55.4 °F 53.6 °F 94% 29.57 in 10.0 mi North 3.5 mph - N/A   Overcast
5:34 AM 55.4 °F 53.6 °F 94% 29.58 in 10.0 mi North 3.5 mph - N/A   Overcast
5:53 AM 55.4 °F 53.6 °F 94% 29.60 in 10.0 mi NW 8.1 mph - N/A   Overcast
6:14 AM 57.2 °F 53.6 °F 88% 29.61 in 10.0 mi NNW 6.9 mph - N/A   Overcast
6:33 AM 57.2 °F 53.6 °F 88% 29.61 in 10.0 mi NNW 9.2 mph - N/A   Overcast
6:54 AM 59.0 °F 55.4 °F 88% 29.62 in 10.0 mi NNW 10.4 mph - N/A   Mostly Cloudy
7:14 AM 60.8 °F 55.4 °F 82% 29.63 in 10.0 mi NNW 11.5 mph - N/A   Mostly Cloudy
7:33 AM 60.8 °F 55.4 °F 82% 29.64 in 10.0 mi NNW 19.6 mph 24.2 mph N/A   Overcast
7:54 AM 57.2 °F 55.4 °F 94% 29.65 in 10.0 mi NNW 20.7 mph 24.2 mph N/A   Overcast
8:13 AM 57.2 °F 55.4 °F 94% 29.66 in 10.0 mi NNW 18.4 mph 25.3 mph N/A   Overcast
8:33 AM 57.2 °F 53.6 °F 88% 29.68 in 10.0 mi NNW 21.9 mph 25.3 mph N/A   Overcast
8:53 AM 55.4 °F 51.8 °F 88% 29.69 in 10.0 mi NW 19.6 mph 28.8 mph N/A   Overcast
9:14 AM 55.4 °F 51.8 °F 88% 29.70 in 10.0 mi NNW 23.0 mph 29.9 mph N/A   Overcast
9:33 AM 55.4 °F 51.8 °F 88% 29.71 in 10.0 mi NNW 20.7 mph 32.2 mph N/A   Overcast
9:53 AM 55.4 °F 50.0 °F 82% 29.72 in 10.0 mi NNW 26.5 mph 31.1 mph N/A   Overcast
10:13 AM 55.4 °F 50.0 °F 82% 29.73 in 10.0 mi NNW 21.9 mph 33.4 mph N/A   Overcast
10:33 AM 53.6 °F 48.2 °F 82% 29.74 in 10.0 mi NNW 25.3 mph 33.4 mph N/A   Overcast
10:54 AM 55.4 °F 48.2 °F 77% 29.75 in 10.0 mi NNW 26.5 mph 32.2 mph N/A   Overcast
11:14 AM 55.4 °F 48.2 °F 77% 29.76 in 10.0 mi NNW 26.5 mph 33.4 mph N/A   Overcast
11:34 AM 53.6 °F 48.2 °F 82% 29.77 in 10.0 mi NNW 25.3 mph 33.4 mph N/A   Overcast
11:53 AM 55.4 °F 48.2 °F 77% 29.78 in 10.0 mi NNW 23.0 mph 34.5 mph N/A   Overcast
12:13 PM 53.6 °F 48.2 °F 82% 29.79 in 10.0 mi NNW 25.3 mph 33.4 mph N/A   Overcast
12:33 PM 55.4 °F 48.2 °F 77% 29.80 in 10.0 mi NNW 31.1 mph 38.0 mph N/A   Overcast
12:53 PM 53.6 °F 48.2 °F 82% 29.81 in 10.0 mi NNW 25.3 mph 34.5 mph N/A   Overcast
1:14 PM 53.6 °F 48.2 °F 82% 29.81 in 10.0 mi NNW 26.5 mph 33.4 mph N/A   Overcast
1:33 PM 53.6 °F 46.4 °F 77% 29.82 in 10.0 mi NNW 27.6 mph 34.5 mph N/A   Overcast
1:53 PM 55.4 °F 46.4 °F 72% 29.83 in 10.0 mi NNW 28.8 mph 36.8 mph N/A   Overcast
2:14 PM 55.4 °F 46.4 °F 72% 29.84 in 10.0 mi NNW 21.9 mph 29.9 mph N/A   Overcast
2:33 PM 55.4 °F 46.4 °F 72% 29.85 in 10.0 mi NNW 27.6 mph 36.8 mph N/A   Overcast
2:54 PM 55.4 °F 46.4 °F 72% 29.86 in 10.0 mi NNW 25.3 mph 31.1 mph N/A   Overcast
3:13 PM 55.4 °F 46.4 °F 72% 29.87 in 10.0 mi NNW 24.2 mph 31.1 mph N/A   Overcast
3:34 PM 55.4 °F 46.4 °F 72% 29.87 in 10.0 mi NNW 19.6 mph 28.8 mph N/A   Overcast
3:53 PM 57.2 °F 46.4 °F 67% 29.87 in 10.0 mi NNW 25.3 mph 32.2 mph N/A   Overcast
4:13 PM 57.2 °F 44.6 °F 63% 29.87 in 10.0 mi North 27.6 mph 35.7 mph N/A   Overcast
4:33 PM 57.2 °F 46.4 °F 67% 29.88 in 10.0 mi North 21.9 mph 34.5 mph N/A   Overcast
4:53 PM 55.4 °F 46.4 °F 72% 29.89 in 10.0 mi North 26.5 mph 29.9 mph N/A   Overcast
5:13 PM 55.4 °F 46.4 °F 72% 29.89 in 10.0 mi North 26.5 mph 32.2 mph N/A   Overcast
5:33 PM 57.2 °F 46.4 °F 67% 29.90 in 10.0 mi North 25.3 mph 29.9 mph N/A   Overcast
5:53 PM 57.2 °F 44.6 °F 63% 29.92 in 10.0 mi North 23.0 mph 32.2 mph N/A   Overcast
6:13 PM 57.2 °F 44.6 °F 63% 29.92 in 10.0 mi North 21.9 mph 33.4 mph N/A   Overcast
6:33 PM 55.4 °F 46.4 °F 72% 29.93 in 10.0 mi NNW 25.3 mph 32.2 mph N/A   Overcast
6:54 PM 57.2 °F 46.4 °F 67% 29.93 in 10.0 mi North 23.0 mph 31.1 mph N/A   Overcast
7:13 PM 55.4 °F 46.4 °F 72% 29.94 in 10.0 mi NNW 20.7 mph 28.8 mph N/A   Overcast
7:33 PM 53.6 °F 48.2 °F 82% 29.95 in 10.0 mi North 18.4 mph 29.9 mph N/A   Overcast
7:53 PM 55.4 °F 46.4 °F 72% 29.95 in 7.0 mi North 20.7 mph 28.8 mph N/A   Overcast
8:13 PM 53.6 °F 48.2 °F 82% 29.96 in 10.0 mi NNW 18.4 mph 23.0 mph N/A   Overcast
8:33 PM 53.6 °F 48.2 °F 82% 29.96 in 10.0 mi North 18.4 mph 24.2 mph N/A   Overcast
8:53 PM 53.6 °F 46.4 °F 77% 29.97 in 10.0 mi NNW 15.0 mph 24.2 mph N/A   Overcast
9:13 PM 53.6 °F 46.4 °F 77% 29.98 in 10.0 mi NNW 18.4 mph 25.3 mph N/A   Overcast
9:33 PM 53.6 °F 46.4 °F 77% 29.99 in 10.0 mi NNW 18.4 mph 25.3 mph N/A   Overcast
9:53 PM 53.6 °F 46.4 °F 77% 29.99 in 10.0 mi NNW 15.0 mph 21.9 mph N/A   Overcast
10:13 PM 53.6 °F 46.4 °F 77% 30.00 in 10.0 mi NNW 17.3 mph 25.3 mph N/A   Overcast
10:33 PM 53.6 °F 46.4 °F 77% 30.01 in 10.0 mi NNW 17.3 mph 23.0 mph N/A   Overcast
10:53 PM 53.6 °F 46.4 °F 77% 30.01 in 10.0 mi NNW 13.8 mph 19.6 mph N/A   Overcast
11:13 PM 53.6 °F 46.4 °F 77% 30.02 in 10.0 mi NNW 12.7 mph 19.6 mph N/A   Overcast
11:33 PM 53.6 °F 46.4 °F 77% 30.02 in 10.0 mi NNW 10.4 mph - N/A   Overcast
11:53 PM 53.6 °F 46.4 °F 77% 30.03 in 10.0 mi NNW 12.7 mph - N/A   Overcast